FW8178 Weather Reports


time (UTC)temp
F
wind
direction
speed
knots
gust
knots
rain 1hr
in
rain 24hr
in
rain mn
in
humidity
%
barometer
mb
20260504140109 79 194 11.3 18.2 0.00 0.00 0.00 52 1007.9
20260504081516 64 76 0.9 2.6 0.00 0.00 0.00 94 1011.1
20260504050021 62 68 0.0 1.7 0.00 0.00 0.00 95 1010.6
20260504044529 62 67 0.0 2.6 0.00 0.00 0.00 95 1010.5
20260504043029 62 69 0.9 3.5 0.00 0.00 0.00 95 1010.4
20260504041518 62 81 2.6 3.5 0.00 0.00 0.00 95 1010.4
20260504040019 62 84 1.7 2.6 0.00 0.00 0.00 95 1010.5
20260504034514 61 84 0.9 2.6 0.00 0.00 0.00 95 1010.5
20260504033012 61 84 0.9 2.6 0.00 0.00 0.00 95 1010.7
20260504031511 61 81 0.9 3.5 0.00 0.00 0.00 95 1010.8
20260504030045 61 98 2.6 5.2 0.00 0.00 0.00 94 1011.0
20260504024536 62 78 2.6 4.3 0.00 0.00 0.00 95 1011.0
20260504023032 62 50 1.7 3.5 0.00 0.00 0.00 94 1011.1
20260504021535 63 50 3.5 5.2 0.00 0.00 0.00 94 1011.1
20260504020035 63 49 2.6 4.3 0.00 0.00 0.00 94 1011.2
20260504014535 63 58 1.7 4.3 0.00 0.00 0.00 94 1011.2
20260504013023 63 73 1.7 3.5 0.00 0.00 0.00 94 1011.3
20260504011522 63 73 1.7 2.6 0.00 0.00 0.00 94 1011.4
20260504010020 63 74 1.7 3.5 0.00 0.00 0.00 94 1011.4
20260504004520 64 82 1.7 3.5 0.00 0.00 0.00 93 1011.4
20260504003049 63 77 1.7 2.6 0.00 0.00 0.00 93 1011.5
20260504001553 64 76 0.9 2.6 0.00 0.00 0.00 93 1011.5
20260504000048 63 76 2.6 5.2 0.00 0.00 0.00 92 1011.4
20260503234545 64 88 1.7 3.5 0.00 0.00 0.00 92 1011.5
20260503233044 64 87 1.7 5.2 0.00 0.00 0.00 92 1011.7
20260503231544 64 67 2.6 4.3 0.00 0.00 0.00 92 1011.6
20260503230049 64 64 2.6 5.2 0.00 0.00 0.00 91 1011.9
20260503224542 64 59 1.7 7.0 0.00 0.00 0.00 91 1012.0
20260503223040 64 77 2.6 4.3 0.00 0.00 0.00 90 1012.0
20260503221539 65 82 2.6 7.0 0.00 0.00 0.00 89 1012.1
20260503220037 65 82 3.5 7.0 0.00 0.00 0.00 88 1012.2
20260503214541 65 88 1.7 5.2 0.00 0.00 0.00 88 1012.2
20260503213037 65 84 2.6 5.2 0.00 0.00 0.00 87 1012.4
20260503211543 65 120 0.9 5.2 0.00 0.00 0.00 86 1012.4
20260503210006 65 135 1.7 7.0 0.00 0.00 0.00 86 1012.5
20260503204505 66 133 3.5 7.8 0.00 0.00 0.00 85 1012.3
20260503203103 65 142 4.3 7.8 0.00 0.00 0.00 85 1012.2
20260503201534 65 70 2.6 5.2 0.00 0.00 0.00 85 1012.1
20260503200046 65 112 1.7 5.2 0.00 0.00 0.00 85 1011.9
20260503194530 65 108 3.5 7.8 0.00 0.00 0.00 86 1011.6
20260503193035 65 103 5.2 9.6 0.00 0.00 0.00 85 1011.2
20260503193033 65 102 5.2 9.6 0.00 0.00 0.00 85 1011.2
20260503191529 65 119 3.5 8.7 0.00 0.00 0.00 84 1010.9
20260503190028 65 98 5.2 9.6 0.00 0.00 0.00 84 1010.8
20260503184535 65 93 6.1 9.6 0.00 0.00 0.00 83 1010.5
20260503183026 66 79 5.2 10.4 0.00 0.00 0.00 82 1010.3
20260503181524 66 89 6.1 11.3 0.00 0.00 0.00 82 1010.2
20260503180042 67 86 7.0 13.9 0.00 0.00 0.00 81 1010.1
20260503174526 67 107 7.0 12.2 0.00 0.00 0.00 79 1010.2
20260503173029 68 103 7.0 11.3 0.00 0.00 0.00 78 1010.1
20260503171518 68 88 7.0 11.3 0.00 0.00 0.00 77 1009.9